SL-16 DEB

Satellite information

Favourite Embed

Satellite Type and Status

DEBRISIN ORBIT

Key statistics

Satellite SL-16 DEB at a glance.

Uptime

11882

Days in orbit

Revolutions

≈ 14.1

Per day

Orbit

LEO

Low Earth Orbit

Inclination

71.1

Latest

Satellite identification and parameters

Extended collection of information and parameters for SL-16 DEB.

Object identification

Identified? True

Debris? True

Object name: SL-16 DEB

International designator: 1992-093AH

Object number (NORAD): 22344

Object ID (CCSDS): 22344

Country: COMMONWEALTH OF INDEPENDENT STATES (CIS)

Current information (Y/N): Y

RCS size: SMALL

Orbital parameters

Period: 102.015 minutes

Inclination: 71.0953 deg

SMA: 7232.189 km

Apoapsis: 929.283 km

Periapsis: 778.824 km

RAAN: 162.8051 deg

Eccentricy: 0.010402

Argument of periapsis: 341.8077 deg

Mean anomaly: 17.9332 deg

Mean motion: 14.11556122 rev/day

Mean motion (dot): 0.00002015 rev/day2

B* drag term: 0.0010786 1/REarth

Two-line elements (TLE)

Creation date: July 6, 2025, 6:05 p.m.

Reference frame: TEME

Reference center: EARTH

Epoch: July 6, 2025, 7:57 a.m. UTC

TLE line 0: 0 SL-16 DEB

TLE line 1: 1 22344U 92093AH 25187.33143851 .00002015 00000-0 10786-2 0 9991

TLE line 2: 2 22344 71.0953 162.8051 0104020 341.8077 17.9332 14.11556122660423

Live tracking on map

Real-time ground track for satellite SL-16 DEB.

In-orbit conjunctions

A list of the most updated potential collisions computed for object SL-16 DEB.

Target Orbit TCA Probability of collision Miss distance Type
THOR AGENA D R/B SSO 2025-06-10 01:17:04 0.0005905501 92.0 (m) ROCKET BODY
CZ-6A DEB SSO 2025-04-26 15:07:01 0.001537255 26.0 (m) DEBRIS
FENGYUN 1C DEB SSO 2024-09-28 00:47:27 0.0002863233 406.0 (m) DEBRIS
CZ-4B DEB LEO 2024-09-27 02:44:21 0.000367447 847.0 (m) DEBRIS
CZ-11 DEB SSO 2024-08-04 10:51:31 0.000160384 289.0 (m) DEBRIS

Associated space launch

Second generation ELING satellite

SL-16 DEB was lifted into orbit during the mission ‘Zenit-2 | Tselina-2 12’, on board a Zenit-2 space rocket.

The launch took place on Dec. 25, 1992, 5:56 a.m. from 45/1.

For more information about the launch, click the button.

Launch to space Zenit-2 | Tselina-2 12
Zenit-2 | Tselina-2 12

Agency: N/A

Status: Launch Successful

Launch date: Dec. 25, 1992, 5:56 a.m. UTC

Rocket: Zenit-2

Launch pad: 45/1

Location: Baikonur Cosmodrome, Republic of Kazakhstan

...

Latest news about this satellite

There are no fresh news available about this satellite. Check back as we update our databases every day.


Newsletter sign-up

Weekly statistics, charts and insights to help you stay on top of the space industry.